Weather History for Wadesboro, NC

Change the Weather History Date:

Tuesday, November 5, 2013

  Actual Average (KCLT) Record (KCLT)
Temperature  
Mean Temperature 45 °F 54 °F  
Max Temperature 58 °F 66 °F 81 °F (2003)
Min Temperature 32 °F 42 °F 24 °F (2006)
Degree Days  
Heating Degree Days 20 11  
Month to date heating degree days 53  
Since 1 July heating degree days 259  
Cooling Degree Days 0 0  
Month to date cooling degree days 0  
Year to date cooling degree days 1513  
Moisture  
Dew Point 40 °F    
Average Humidity 77    
Maximum Humidity 94    
Minimum Humidity 56    
Precipitation  
Precipitation 0.00 in 0.10 in 0.97 in (2002)
Month to date precipitation 0.50  
Year to date precipitation 35.74  
Snow  
Snow 0.00 in 0.00 in T in (1962)
Month to date snowfall 0.0  
Since 1 July snowfall 0.0  
Since 1 September snowfall 0.0  
Snow Depth -    
Sea Level Pressure  
Sea Level Pressure 30.48 in    
Wind  
Wind Speed 2 mph (North)    
Max Wind Speed 9 mph    
Max Gust Speed -    
Visibility 9 miles    
Events      
T = Trace of Precipitation, MM = Missing Value Source: NWS Daily Summary

Daily Weather History Graph

Daily Weather History Graph

Search for Another Location

Airport:

Trip Planner

Search our weather history database for the weather conditions in past years. The results will help you decide how hot, cold, wet, or windy it might be!

Date:

Astronomy

Nov. 05, 2013 Rise Set
Actual Time 6:45 AM EST 5:22 PM EST
Civil Twilight 6:18 AM EST 5:48 PM EST
Nautical Twilight 5:48 AM EST 6:18 PM EST
Astronomical Twilight 5:19 AM EST 6:48 PM EST
Moon 8:55 AM EST (11/5) 7:25 PM EST (11/5)
Length of Visible Light 11h 29m
Length of Day
10h 36m
Waxing Crescent, 6% of the Moon is Illuminated
Nov 5
Waxing Crescent
Nov 10
First Quarter
Nov 17
Full
Nov 25
Last Quarter
Dec 2
New

Hourly Weather History & Observations

Time (EST) Temp. Windchill Dew Point Humidity Pressure Visibility Wind Dir Wind Speed Gust Speed Precip Events Conditions
12:15 AM 34.9 °F - 32.2 °F 90% 30.52 in 10.0 mi Calm Calm - N/A   Clear
12:35 AM 32.9 °F - 31.1 °F 93% 30.51 in 10.0 mi Calm Calm - N/A   Clear
12:55 AM 33.6 °F - 31.8 °F 93% 30.52 in 7.0 mi Calm Calm - N/A   Clear
1:15 AM 32.2 °F - 30.0 °F 92% 30.51 in 10.0 mi Calm Calm - N/A   Clear
1:35 AM 32.0 °F - 30.2 °F 93% 30.51 in 7.0 mi Calm Calm - N/A   Clear
1:55 AM 32.2 °F 28.9 °F 30.7 °F 94% 30.51 in 4.0 mi NNW 3.5 mph - N/A   Clear
2:15 AM 34.5 °F - 31.6 °F 89% 30.51 in 7.0 mi Calm Calm - N/A   Clear
2:35 AM 32.0 °F - 29.3 °F 90% 30.50 in 10.0 mi Calm Calm - N/A   Clear
2:55 AM 32.0 °F - 29.8 °F 92% 30.50 in 7.0 mi Calm Calm - N/A   Clear
3:15 AM 32.4 °F 27.9 °F 30.7 °F 94% 30.50 in 2.5 mi North 4.6 mph - N/A   Clear
3:35 AM 33.8 °F - 31.1 °F 90% 30.50 in 10.0 mi Calm Calm - N/A   Clear
3:55 AM 34.7 °F 31.8 °F 31.1 °F 87% 30.50 in 5.0 mi NNW 3.5 mph - N/A   Clear
4:15 AM 35.4 °F 32.6 °F 31.8 °F 87% 30.51 in 7.0 mi NNW 3.5 mph - N/A   Clear
4:35 AM 34.3 °F - 31.3 °F 89% 30.51 in 7.0 mi Calm Calm - N/A   Clear
4:55 AM 34.3 °F - 31.3 °F 89% 30.51 in 10.0 mi Calm Calm - N/A   Clear
5:15 AM 33.4 °F - 30.9 °F 90% 30.52 in 10.0 mi Calm Calm - N/A   Clear
5:35 AM 32.5 °F - 30.2 °F 91% 30.52 in 10.0 mi Calm Calm - N/A   Scattered Clouds
5:55 AM 34.7 °F - 32.2 °F 91% 30.52 in 7.0 mi Calm Calm - N/A   Overcast
6:15 AM 34.7 °F - 32.0 °F 90% 30.52 in 10.0 mi Calm Calm - N/A   Scattered Clouds
6:35 AM 35.8 °F - 32.5 °F 88% 30.51 in 10.0 mi Calm Calm - N/A   Scattered Clouds
6:55 AM 33.8 °F - 31.6 °F 92% 30.51 in 10.0 mi Calm Calm - N/A   Scattered Clouds
7:15 AM 35.8 °F - 32.9 °F 89% 30.50 in 5.0 mi Calm Calm - N/A   Scattered Clouds
7:35 AM 37.4 °F 33.8 °F 34.5 °F 89% 30.52 in 7.0 mi NW 4.6 mph - N/A   Clear
7:55 AM 40.5 °F 38.4 °F 35.6 °F 83% 30.53 in 10.0 mi NW 3.5 mph - N/A   Scattered Clouds
8:15 AM 41.0 °F 39.0 °F 35.4 °F 81% 30.53 in 10.0 mi NNW 3.5 mph - N/A   Scattered Clouds
8:35 AM 42.3 °F 40.5 °F 37.0 °F 82% 30.53 in 10.0 mi North 3.5 mph - N/A   Mostly Cloudy
8:55 AM 44.1 °F 41.5 °F 37.4 °F 77% 30.53 in 10.0 mi North 4.6 mph - N/A   Mostly Cloudy
9:15 AM 46.0 °F 43.1 °F 37.9 °F 73% 30.53 in 10.0 mi North 5.8 mph - N/A   Scattered Clouds
9:35 AM 48.4 °F - 37.2 °F 65% 30.53 in 10.0 mi North 4.6 mph - N/A   Scattered Clouds
9:55 AM 48.9 °F - 37.9 °F 66% 30.53 in 10.0 mi North 6.9 mph - N/A   Mostly Cloudy
10:15 AM 49.6 °F - 38.1 °F 65% 30.53 in 10.0 mi North 8.1 mph - N/A   Overcast
10:35 AM 50.5 °F - 38.1 °F 62% 30.53 in 10.0 mi North 5.8 mph - N/A   Overcast
10:55 AM 51.6 °F - 38.5 °F 61% 30.52 in 10.0 mi NNW 8.1 mph - N/A   Overcast
11:15 AM 53.2 °F - 39.2 °F 59% 30.51 in 10.0 mi NNW 8.1 mph - N/A   Overcast
11:35 AM 54.3 °F - 40.6 °F 60% 30.50 in 10.0 mi North 8.1 mph - N/A   Overcast
11:55 AM 54.9 °F - 41.5 °F 61% 30.49 in 10.0 mi NE 6.9 mph - N/A   Overcast
12:15 PM 55.8 °F - 42.3 °F 60% 30.48 in 10.0 mi North 9.2 mph - N/A   Overcast
12:35 PM 56.1 °F - 42.3 °F 60% 30.47 in 10.0 mi NNE 5.8 mph - N/A   Overcast
12:55 PM 56.7 °F - 42.6 °F 59% 30.46 in 10.0 mi North 5.8 mph - N/A   Overcast
1:15 PM 56.8 °F - 42.4 °F 59% 30.45 in 10.0 mi NE 9.2 mph - N/A   Overcast
1:35 PM 56.5 °F - 41.9 °F 58% 30.45 in 10.0 mi NNE 5.8 mph - N/A   Overcast
1:55 PM 57.6 °F - 42.3 °F 57% 30.44 in 3.0 mi NNE 4.6 mph - N/A   Haze
2:15 PM 58.1 °F - 42.8 °F 57% 30.44 in 10.0 mi North 6.9 mph - N/A   Overcast
2:35 PM 58.3 °F - 42.8 °F 56% 30.44 in 10.0 mi North 6.9 mph - N/A   Overcast
2:55 PM 58.3 °F - 43.3 °F 58% 30.44 in 10.0 mi North 5.8 mph - N/A   Overcast
3:15 PM 57.6 °F - 43.2 °F 59% 30.44 in 10.0 mi North 4.6 mph - N/A   Overcast
3:35 PM 56.5 °F - 44.6 °F 64% 30.44 in 10.0 mi North 4.6 mph - N/A   Overcast
3:55 PM 56.7 °F - 45.1 °F 65% 30.44 in 10.0 mi NNE 4.6 mph - N/A   Overcast
4:15 PM 56.3 °F - 45.9 °F 68% 30.44 in 10.0 mi NNE 3.5 mph - N/A   Overcast
4:35 PM 55.6 °F - 46.4 °F 71% 30.44 in 10.0 mi North 5.8 mph - N/A   Overcast
4:55 PM 55.0 °F - 46.4 °F 73% 30.44 in 10.0 mi North 4.6 mph - N/A   Overcast
5:15 PM 54.9 °F - 46.6 °F 74% 30.44 in 10.0 mi North 4.6 mph - N/A   Overcast
5:35 PM 54.7 °F - 46.9 °F 75% 30.43 in 10.0 mi North 3.5 mph - N/A   Overcast
5:55 PM 54.5 °F - 47.3 °F 77% 30.43 in 10.0 mi North 4.6 mph - N/A   Overcast
6:15 PM 54.5 °F - 47.3 °F 77% 30.44 in 10.0 mi North 4.6 mph - N/A   Overcast
6:35 PM 54.1 °F - 47.3 °F 78% 30.44 in 10.0 mi North 3.5 mph - N/A   Overcast
6:55 PM 54.0 °F - 47.3 °F 78% 30.44 in 10.0 mi NNW 3.5 mph - N/A   Overcast
7:15 PM 54.0 °F - 47.3 °F 78% 30.44 in 10.0 mi Calm Calm - N/A   Overcast
7:35 PM 54.0 °F - 47.3 °F 78% 30.44 in 10.0 mi Calm Calm - N/A   Overcast
7:55 PM 53.8 °F - 47.1 °F 78% 30.44 in 10.0 mi Calm Calm - N/A   Overcast
8:15 PM 53.2 °F - 46.9 °F 79% 30.44 in 10.0 mi Calm Calm - N/A   Overcast
8:35 PM 52.9 °F - 46.9 °F 80% 30.43 in 10.0 mi Calm Calm - N/A   Overcast
8:55 PM 52.7 °F - 46.9 °F 81% 30.43 in 10.0 mi Calm Calm - N/A   Overcast
9:15 PM 52.7 °F - 46.9 °F 81% 30.44 in 10.0 mi North 3.5 mph - N/A   Overcast
9:35 PM 53.1 °F - 46.9 °F 80% 30.44 in 10.0 mi North 4.6 mph - N/A   Overcast
9:55 PM 53.1 °F - 46.9 °F 80% 30.43 in 10.0 mi North 3.5 mph - N/A   Overcast
10:15 PM 53.2 °F - 47.3 °F 80% 30.43 in 10.0 mi North 4.6 mph - N/A   Overcast
10:35 PM 53.6 °F - 47.3 °F 79% 30.44 in 10.0 mi North 3.5 mph - N/A   Overcast
10:55 PM 53.6 °F - 47.3 °F 79% 30.43 in 10.0 mi Calm Calm - N/A   Overcast
11:15 PM 53.4 °F - 47.3 °F 80% 30.42 in 10.0 mi Calm Calm - N/A   Overcast
11:35 PM 53.2 °F - 47.5 °F 81% 30.42 in 10.0 mi Calm Calm - N/A   Overcast
11:55 PM 53.1 °F - 47.5 °F 81% 30.42 in 10.0 mi Calm Calm - N/A   Overcast